Notices

What's New in latest Release from April 7th, 2021:

- Updated Glossary, including Speed of Maximum Gust, and Total Hourly Precipitation

- Updated national and regional climate services offices contacts and prices information

- Addition of station inventory lists for 1981-2010, 1971-2000, and 1961-1990 Normals.

If you haven't already, please take our survey and provide feedback about our website: https://eccc.sondage-survey.ca/f/LanguageSelection.aspx?s=442ca660-fcf1-47c0-95a9-59707d6fd709

Hourly Data Report for May 26, 2020

MIRAMICHI RCS
NEW BRUNSWICK
Current Station Operator: ECCC - MSC

47°00'34.000" N
65°27'54.000" W
33.00 m
8100989
71744
ACQ

Download Data

Hourly Data (May 2020)
Hourly Data Report for May 26, 2020
TIME
LST
Temp Definition
°C
Dew Point Definition
°C
Rel Hum Definition
%
Precip. Amount Definition
mm

Wind Dir Definition
10's deg

Wind Spd Definition
km/h
Visibility Definition
km
Stn Press Definition
kPa
Hmdx Definition


Wind Chill Definition


Weather Definition


00:00 14.2 9.5 74 LegendMM 22 22   101.52     LegendNANA
01:00 13.9 10.1 78 LegendMM 22 22   101.49     LegendNANA
02:00 14.3 10.6 78 LegendMM 22 22   101.48     LegendNANA
03:00 14.3 10.7 79 LegendMM 22 17   101.47     LegendNANA
04:00 14.7 10.6 77 LegendMM 22 22   101.47     LegendNANA
05:00 14.3 10.8 79 LegendMM 22 23   101.50     LegendNANA
06:00 14.8 11.8 82 LegendMM 22 19   101.54     LegendNANA
07:00 15.6 12.8 83 LegendMM 23 16   101.57     LegendNANA
08:00 17.3 13.4 78 LegendMM 24 21   101.55     LegendNANA
09:00 19.1 14.0 72 LegendMM 22 27   101.48     LegendNANA
10:00 21.5 15.5 69 LegendMM 23 20   101.44 26   LegendNANA
11:00 23.7 17.0 66 LegendMM 23 23   101.38 29   LegendNANA
12:00 26.2 19.0 65 LegendMM 23 24   101.31 33   LegendNANA
13:00 27.2 18.7 60 LegendMM 22 23   101.26 34   LegendNANA
14:00 28.1 19.5 60 LegendMM 24 27   101.20 35   LegendNANA
15:00 29.4 21.2 61 LegendMM 25 21   101.19 38   LegendNANA
16:00 29.9 19.7 54 LegendMM 22 21   101.18 37   LegendNANA
17:00 29.0 20.4 60 LegendMM 23 19   101.17 37   LegendNANA
18:00 28.8 19.8 58 LegendMM 24 18   101.17 36   LegendNANA
19:00 28.1 22.4 71 LegendMM 24 13   101.24 38   LegendNANA
20:00 26.0 23.3 85 LegendMM 20 20   101.28 37   LegendNANA
21:00 21.2 LegendMM LegendMM LegendMM 23 11   101.46     LegendNANA
22:00 20.0 LegendMM LegendMM LegendMM 22 6   101.51     LegendNANA
23:00 20.1 LegendMM LegendMM LegendMM 23 9   101.50     LegendNANA

Notes on Data Quality.

Legend

  • E = Estimated
  • M = Missing
  • NA = Not Available*
  • [empty] = Indicates an unobserved value
Date modified: